This is the latest recevied weather packets stored in our database for station/object KD9JB-1. If no packets are shown the sender has not sent any weather packets the latest 10 day(s).
| Time | Temp. | Humidity | Pressure | Rain* | Wind** | Luminosity | Snow |
|---|---|---|---|---|---|---|---|
| 1777497409 | 18.33° C | 51% | 1013.8 hPa | 0 mm | - | - | - |
| 1777497109 | 18.89° C | 50% | 1013.8 hPa | 0 mm | - | - | - |
| 1777496809 | 19.44° C | 50% | 1013.7 hPa | 0 mm | - | - | - |
| 1777496509 | 18.89° C | 49% | 1013.8 hPa | 0 mm | - | - | - |
| 1777496209 | 18.89° C | 49% | 1013.9 hPa | 0 mm | - | - | - |
| 1777495909 | 18.33° C | 52% | 1013.9 hPa | 0 mm | - | - | - |
| 1777495609 | 18.89° C | 50% | 1014 hPa | 0 mm | - | - | - |
| 1777495309 | 18.89° C | 52% | 1014 hPa | 0 mm | - | - | - |
| 1777495009 | 18.89° C | 54% | 1013.9 hPa | 0 mm | - | - | - |
| 1777494710 | 18.89° C | 53% | 1013.9 hPa | 0 mm | - | - | - |
| 1777494409 | 18.89° C | 52% | 1014.1 hPa | 0 mm | - | - | - |
| 1777494109 | 18.33° C | 53% | 1014.1 hPa | 0 mm | - | - | - |
| 1777493809 | 19.44° C | 52% | 1014.1 hPa | 0 mm | - | - | - |
| 1777493509 | 20° C | 49% | 1014.1 hPa | 0 mm | - | - | - |
| 1777493209 | 20° C | 55% | 1014.1 hPa | 0 mm | - | - | - |
| 1777492909 | 20° C | 53% | 1014.2 hPa | 0 mm | - | - | - |
| 1777492609 | 20° C | 53% | 1014.1 hPa | 0 mm | - | - | - |
| 1777492309 | 20° C | 51% | 1014 hPa | 0 mm | - | - | - |
| 1777492010 | 20° C | 51% | 1014.1 hPa | 0 mm | - | - | - |
| 1777491710 | 20° C | 51% | 1014 hPa | 0 mm | - | - | - |
| 1777491410 | 20° C | 50% | 1014 hPa | 0 mm | - | - | - |
| 1777491109 | 20° C | 53% | 1014 hPa | 0 mm | - | - | - |
| 1777490810 | 20° C | 52% | 1013.9 hPa | 0 mm | - | - | - |
| 1777490509 | 19.44° C | 53% | 1014 hPa | 0 mm | - | - | - |
| 1777490209 | 18.89° C | 52% | 1014 hPa | 0 mm | - | - | - |
* Rain latest hour (hover to see other rain measurements)
** Current wind speed in m/s (hover to see current wind gust speed)